Vorticity
13 15 13 11 18 8 7 9 11 7 10 20 19 17 45 47 46 11 6 6 12 14 -9 -2 -0 -1 12 4 5 3 8 5 11 7 3 4 9 3 7 12 11 14 17 21 19 16 15 15 14 12 13 11 9 8
12 7 6 9 7 14 15 10 15 21 15 12 12 19 51 47 38 8 12 6 -5 -15 -6 24 14 13 2 8 7 3 9 4 14 10 5 4 18 7 12 8 10 7 9 6 7 8 10 8 8 6 6 7 5 4
16 15 19 25 12 5 11 24 8 8 25 44 28 48 43 41 20 3 0 7 -0 -14 -6 1 39 21 9 5 9 3 8 14 21 16 7 -1 7 10 4 6 5 6 4 3 4 5 5 5 3 3 3 3 4 5
13 6 3 9 19 23 19 6 23 34 59 52 26 14 60 37 8 0 3 4 -14 8 1 7 12 24 15 7 6 6 7 3 -8 -29 -6 4 4 4 3 2 1 -1 -2 -0 1 0 1 1 2 3 3 3 2 1
18 12 25 19 10 19 10 6 7 24 10 7 26 59 43 19 8 -13 10 15 -11 0 -19 9 16 21 12 9 -0 3 4 12 13 20 17 5 -0 -2 2 2 0 0 -0 -1 1 1 3 3 4 5 5 5 5 5
5 16 15 18 25 6 7 11 14 2 39 34 44 43 25 9 8 1 8 -22 -2 1 -12 4 35 6 12 19 -4 -5 1 23 18 4 -26 5 6 -0 1 -0 -1 0 -1 -1 -0 3 2 3 5 4 5 5 6 7
35 10 4 13 6 13 5 8 16 35 43 36 34 16 7 -9 -21 -1 23 -12 19 -5 12 -60 82 9 25 3 17 26 18 -35 47 -7 1 8 4 5 2 1 1 2 2 1 1 0 2 5 3 3 4 5 7 7
61 49 32 25 13 15 23 26 27 39 33 35 12 6 15 -22 17 -0 -7 21 28 -16 -1 -15 36 1 -9 -11 2 -9 5 16 -5 8 13 10 9 7 5 1 -1 -0 -1 -1 2 3 3 4 6 6 6 6 7 7
32 51 59 46 41 35 36 41 49 47 23 19 21 2 3 -11 -10 -13 0 11 1 50 47 12 17 -24 22 -9 13 6 10 17 13 6 11 -2 -1 8 11 8 3 2 4 5 7 7 8 7 7 7 5 6 6 7
-8 4 30 32 40 60 59 42 36 26 14 -3 7 4 -3 -50 -15 28 19 16 19 -4 2 44 51 -34 -5 7 21 22 15 6 10 14 13 11 10 7 8 8 9 8 9 9 12 10 8 10 4 2 8 9 8 9
12 7 4 3 11 15 24 28 25 -9 1 14 7 22 -62 -31 16 16 -17 -1 -14 11 17 18 13 -3 -19 -9 5 8 7 6 7 8 9 12 15 13 11 11 11 11 11 9 9 14 14 1 0 14 12 11 10 7
12 19 19 3 -1 16 32 19 5 -1 6 2 3 2 22 -18 -5 29 44 23 -3 9 23 15 24 29 19 20 10 8 13 11 9 10 10 10 12 12 12 7 11 8 7 7 7 -13 -6 8 17 12 8 6 7 10
3 7 16 13 9 9 5 6 20 -26 -2 25 26 -89 2 -9 2 -0 3 6 1 0 1 17 21 14 6 14 9 12 16 12 14 12 12 14 14 13 13 8 7 8 6 11 15 20 18 12 6 4 5 10 15 14
11 22 3 8 5 -4 -2 9 6 -3 5 -15 -14 2 10 6 1 -3 -3 -4 -4 3 5 11 25 2 12 5 6 17 10 12 14 11 14 8 11 12 13 2 9 20 6 12 14 9 5 2 3 7 15 13 11 11
17 -6 12 10 15 9 5 7 6 12 8 2 1 2 6 7 9 2 6 18 9 10 13 25 27 31 -15 -12 16 18 3 13 13 9 22 9 3 -2 20 28 23 15 8 3 3 6 9 10 16 11 6 7 8 11
11 10 -20 13 5 6 11 3 5 13 15 15 13 4 7 12 6 10 2 -0 6 12 26 8 -14 0 13 24 -5 -3 -2 5 12 7 11 13 19 18 7 2 1 -0 -3 3 11 11 9 11 8 6 9 9 10 11
10 4 10 26 13 19 23 26 14 10 7 5 6 6 6 9 15 8 -3 22 -2 2 31 18 -9 13 8 7 11 15 16 13 21 15 8 4 4 4 5 0 -2 -3 1 10 14 14 6 4 7 10 14 7 8 8
7 14 10 6 10 12 11 9 4 5 2 6 11 17 22 30 14 14 12 14 8 6 10 1 11 8 14 16 11 3 2 6 2 -4 -5 -2 3 3 4 4 6 12 10 8 8 11 14 13 11 11 7 10 11 6
17 13 7 6 12 8 8 5 12 -4 2 5 5 4 2 5 4 11 11 4 4 12 18 1 -0 9 7 6 6 2 5 3 3 11 5 -5 4 8 11 10 8 8 10 15 15 11 11 13 12 11 8 4 5 6
4 4 4 8 10 12 12 10 10 9 9 7 7 7 4 2 2 2 1 1 3 3 7 14 3 -2 3 2 2 3 4 7 9 9 9 10 9 9 10 11 13 14 14 12 14 9 8 9 5 5 6 7 8 9
11 7 11 8 7 6 6 5 8 9 10 16 13 6 12 16 13 6 3 5 6 5 9 10 11 9 9 9 11 12 14 12 3 3 8 17 11 8 7 12 16 18 11 10 6 4 4 5 8 10 12 13 16 18
17 19 21 15 12 13 14 12 12 7 11 10 13 11 8 5 5 7 8 9 9 9 8 7 7 8 11 10 9 10 11 13 16 14 14 21 23 20 7 5 9 8 5 8 9 9 11 11 14 17 18 20 23 18
23 26 28 23 20 27 13 26 25 21 28 24 20 19 19 15 15 18 16 18 10 15 16 14 13 19 21 24 27 26 20 19 16 10 6 6 5 5 7 8 9 11 13 15 18 18 17 20 20 18 14 11 8 6
4 1 0 3 14 15 14 12 10 9 13 10 12 16 22 17 17 19 19 17 14 11 13 13 10 9 7 7 7 6 7 7 6 6 7 8 10 13 16 17 19 18 17 15 12 10 10 9 8 7 5 5 5 5
5 4 3 4 3 4 5 5 4 0 -3 4 9 11 13 16 12 9 8 8 9 9 8 8 8 9 9 10 10 11 11 13 16 17 20 22 21 18 15 11 9 6 7 7 6 6 7 8 8 7 6 5 5 7
6 10 10 11 7 4 -2 5 10 13 18 5 9 19 16 10 13 15 16 17 17 17 16 16 17 19 20 20 21 22 19 21 18 15 10 7 5 3 4 5 5 5 6 7 9 9 9 9 10 12 15 18 18 16
3 12 10 7 2 6 8 8 2 8 12 21 18 18 18 19 21 23 23 21 20 20 20 19 18 17 15 12 11 8 5 4 4 4 5 4 3 5 7 9 11 10 12 11 11 13 17 21 18 8 1 1 3 5
8 11 8 -1 6 7 8 15 15 20 22 22 24 18 20 18 14 15 13 11 10 8 6 5 4 4 3 3 3 3 3 4 5 7 9 11 13 14 13 12 12 12 15 19 20 10 0 -1 2 2 2 5 9 11
9 5 7 16 16 14 15 22 23 19 12 12 9 9 6 6 5 4 3 2 1 1 2 3 5 7 7 9 11 13 13 12 11 11 12 12 14 15 18 17 17 15 9 3 2 2 2 3 4 6 10 13 14 15
16 22 13 12 16 17 13 13 10 8 7 6 5 6 6 6 5 4 5 6 8 9 11 12 13 12 11 11 11 13 15 17 18 17 18 18 17 16 14 11 7 4 2 2 3 5 8 12 15 17 18 20 20 21
13 14 14 12 15 17 18 19 20 20 20 21 23 23 23 22 22 20 19 17 16 17 17 18 20 20 21 20 18 18 17 17 16 14 12 8 5 4 3 4 5 6 9 12 15 16 18 19 19 19 19 19 18 18
17 11 12 13 17 14 15 11 16 18 13 15 19 21 19 17 17 18 19 19 20 20 20 18 15 12 12 13 12 11 9 8 7 7 8 9 11 13 15 18 20 23 26 28 30 30 30 29 28 27 25 24 23 23
14 15 10 7 12 13 14 16 8 13 17 14 21 23 22 19 19 17 16 14 13 13 12 11 11 10 9 9 9 10 11 12 14 17 21 25 28 30 32 32 33 33 32 30 29 28 27 26 25 24 24 24 23 23
Height
5261 5270 5279 5289 5299 5309 5318 5328 5336 5345 5354 5362 5371 5382 5389 5407 5437 5466 5493 5511 5532 5550 5562 5571 5581 5597 5605 5615 5623 5633 5642 5646 5653 5660 5667 5671 5677 5681 5685 5687 5688 5689 5689 5689 5690 5691 5693 5694 5695 5697 5699 5698 5700 5700
5270 5277 5284 5292 5301 5308 5317 5326 5334 5341 5348 5356 5364 5374 5385 5405 5436 5467 5488 5510 5524 5541 5557 5566 5577 5591 5602 5612 5618 5626 5637 5646 5650 5655 5661 5666 5672 5677 5680 5681 5682 5685 5686 5685 5687 5688 5689 5689 5691 5693 5694 5694 5692 5691
5276 5282 5288 5295 5302 5310 5318 5325 5332 5337 5340 5346 5356 5368 5384 5408 5440 5470 5492 5509 5523 5542 5556 5566 5577 5587 5595 5603 5615 5623 5632 5637 5638 5646 5654 5663 5667 5672 5674 5677 5678 5680 5681 5681 5683 5684 5684 5685 5686 5686 5686 5685 5683 5682
5281 5287 5293 5299 5306 5312 5319 5326 5331 5334 5336 5343 5357 5371 5389 5416 5450 5474 5491 5509 5527 5542 5554 5565 5573 5583 5591 5596 5605 5616 5628 5635 5641 5644 5650 5656 5662 5666 5669 5671 5674 5676 5676 5677 5677 5679 5679 5678 5678 5678 5678 5676 5675 5673
5285 5291 5296 5303 5309 5315 5322 5328 5334 5340 5347 5356 5366 5379 5401 5429 5456 5478 5495 5513 5528 5540 5551 5564 5572 5578 5586 5593 5605 5613 5618 5626 5634 5639 5643 5648 5654 5659 5662 5664 5667 5669 5670 5671 5671 5671 5670 5670 5669 5667 5666 5664 5663 5661
5287 5294 5300 5306 5312 5319 5326 5331 5338 5345 5350 5360 5373 5389 5417 5443 5465 5485 5500 5516 5529 5538 5549 5561 5568 5574 5582 5593 5602 5605 5616 5620 5626 5632 5637 5642 5646 5651 5654 5657 5660 5662 5663 5664 5665 5664 5662 5661 5660 5658 5656 5654 5652 5649
5292 5298 5303 5310 5318 5324 5330 5335 5342 5349 5357 5367 5384 5407 5431 5458 5474 5494 5513 5529 5536 5543 5551 5556 5555 5568 5578 5587 5594 5601 5608 5614 5618 5624 5629 5635 5639 5641 5645 5650 5652 5653 5655 5656 5656 5655 5655 5653 5651 5649 5646 5643 5640 5637
5300 5303 5308 5314 5321 5327 5333 5338 5346 5355 5366 5380 5399 5426 5452 5473 5492 5509 5522 5533 5541 5543 5549 5557 5561 5571 5576 5580 5590 5595 5603 5608 5613 5617 5623 5627 5631 5633 5636 5641 5643 5644 5646 5646 5645 5645 5643 5641 5640 5637 5634 5632 5628 5625
5322 5321 5319 5322 5327 5333 5339 5347 5357 5368 5387 5409 5433 5449 5463 5484 5500 5511 5517 5525 5534 5540 5546 5555 5562 5566 5571 5578 5587 5594 5599 5602 5608 5610 5615 5620 5621 5623 5628 5631 5633 5634 5635 5635 5634 5632 5631 5629 5627 5625 5622 5618 5615 5611
5355 5350 5349 5349 5352 5358 5364 5375 5388 5404 5421 5435 5448 5462 5479 5489 5503 5510 5517 5526 5533 5537 5543 5550 5558 5565 5572 5578 5583 5589 5592 5594 5597 5603 5607 5609 5610 5615 5618 5620 5621 5623 5623 5622 5620 5620 5618 5616 5614 5611 5608 5605 5601 5597
5384 5383 5383 5387 5391 5395 5401 5410 5420 5430 5443 5453 5466 5477 5488 5499 5508 5511 5520 5527 5532 5537 5541 5547 5555 5562 5566 5572 5577 5580 5584 5587 5590 5593 5597 5598 5600 5604 5607 5608 5610 5611 5611 5610 5609 5608 5606 5604 5601 5598 5595 5591 5587 5583
5410 5411 5410 5412 5421 5427 5432 5439 5445 5454 5464 5474 5484 5494 5501 5504 5509 5515 5520 5529 5534 5537 5541 5545 5550 5557 5562 5568 5571 5574 5577 5579 5580 5583 5586 5587 5593 5596 5597 5598 5598 5598 5597 5598 5597 5595 5592 5590 5588 5584 5581 5577 5573 5569
5433 5432 5434 5436 5440 5446 5452 5460 5467 5471 5479 5487 5491 5495 5502 5509 5514 5519 5524 5528 5532 5534 5540 5545 5550 5555 5557 5562 5565 5569 5570 5572 5574 5576 5576 5580 5584 5586 5586 5586 5586 5586 5585 5584 5583 5581 5579 5576 5573 5570 5567 5562 5557 5553
5448 5450 5452 5454 5457 5462 5466 5472 5477 5483 5489 5494 5500 5504 5508 5511 5514 5519 5524 5529 5532 5535 5539 5543 5547 5550 5554 5558 5560 5561 5564 5566 5567 5568 5570 5573 5574 5575 5576 5576 5575 5573 5572 5571 5569 5567 5565 5562 5558 5555 5551 5546 5542 5538
5458 5461 5465 5468 5471 5474 5478 5482 5486 5491 5496 5500 5504 5506 5510 5513 5516 5520 5525 5529 5532 5534 5537 5539 5543 5548 5551 5553 5553 5557 5558 5559 5561 5562 5564 5563 5566 5566 5565 5563 5562 5561 5560 5559 5557 5554 5551 5547 5543 5539 5536 5532 5527 5523
5465 5469 5473 5478 5481 5484 5486 5489 5493 5495 5498 5501 5505 5508 5512 5515 5517 5521 5524 5526 5527 5529 5533 5537 5541 5545 5546 5547 5549 5549 5552 5553 5554 5552 5552 5553 5553 5552 5552 5552 5550 5549 5546 5544 5541 5538 5536 5532 5529 5525 5522 5517 5512 5507
5474 5475 5479 5482 5486 5490 5492 5494 5495 5496 5499 5502 5504 5507 5508 5511 5514 5516 5518 5520 5523 5526 5529 5532 5535 5536 5537 5538 5540 5541 5542 5543 5543 5542 5542 5542 5542 5542 5541 5540 5537 5535 5532 5529 5526 5524 5521 5517 5513 5509 5505 5501 5496 5490
5476 5478 5481 5484 5487 5489 5491 5493 5494 5496 5499 5502 5504 5506 5508 5510 5513 5515 5517 5520 5522 5523 5525 5527 5528 5529 5529 5530 5530 5531 5531 5532 5532 5531 5531 5531 5530 5529 5527 5525 5523 5520 5518 5515 5512 5508 5505 5501 5497 5493 5489 5484 5479 5474
5478 5480 5482 5485 5487 5490 5492 5494 5496 5497 5499 5499 5500 5501 5503 5504 5506 5508 5510 5512 5513 5514 5517 5518 5519 5520 5522 5522 5523 5522 5522 5521 5521 5521 5520 5519 5517 5515 5513 5511 5508 5505 5502 5499 5496 5492 5488 5484 5479 5475 5472 5468 5462 5456
5477 5479 5482 5484 5486 5488 5490 5492 5494 5496 5496 5498 5499 5500 5502 5503 5504 5505 5506 5507 5508 5511 5511 5512 5513 5513 5513 5513 5512 5512 5511 5510 5509 5508 5507 5505 5503 5500 5498 5495 5492 5489 5486 5483 5479 5474 5471 5467 5462 5457 5452 5448 5443 5437
5476 5477 5479 5481 5482 5485 5486 5488 5490 5491 5493 5494 5495 5496 5497 5497 5498 5499 5500 5501 5502 5502 5503 5503 5503 5502 5501 5501 5500 5499 5498 5496 5495 5493 5492 5490 5488 5485 5482 5479 5476 5473 5470 5466 5462 5457 5453 5449 5444 5439 5432 5427 5422 5417
5473 5474 5475 5477 5478 5480 5481 5483 5484 5485 5487 5487 5488 5488 5488 5489 5489 5489 5490 5490 5490 5491 5491 5491 5490 5490 5489 5488 5486 5485 5484 5482 5480 5478 5476 5474 5471 5469 5466 5462 5459 5456 5453 5450 5445 5440 5436 5431 5426 5420 5415 5410 5406 5401
5473 5474 5475 5475 5476 5477 5478 5478 5479 5478 5479 5479 5479 5479 5479 5479 5478 5479 5478 5478 5478 5477 5477 5477 5476 5475 5474 5473 5471 5470 5468 5467 5465 5464 5462 5460 5458 5455 5452 5449 5446 5442 5437 5433 5428 5424 5419 5414 5409 5404 5399 5395 5390 5386
5474 5474 5474 5474 5474 5475 5475 5475 5475 5475 5474 5473 5473 5472 5471 5470 5470 5469 5468 5467 5467 5465 5464 5463 5463 5462 5461 5460 5459 5457 5456 5455 5453 5451 5449 5446 5443 5440 5436 5433 5429 5425 5421 5417 5412 5408 5403 5398 5394 5389 5384 5380 5375 5369
5474 5473 5474 5473 5473 5472 5472 5471 5470 5469 5468 5467 5465 5464 5462 5461 5459 5458 5458 5457 5456 5455 5453 5452 5451 5450 5449 5447 5445 5444 5442 5440 5438 5435 5432 5429 5426 5423 5420 5417 5413 5409 5405 5401 5397 5392 5388 5383 5378 5372 5367 5362 5357 5351
5469 5468 5469 5468 5467 5467 5465 5464 5463 5461 5460 5458 5455 5453 5451 5449 5448 5446 5446 5444 5443 5442 5440 5439 5438 5437 5435 5433 5432 5429 5428 5426 5424 5421 5418 5416 5412 5409 5405 5402 5398 5393 5388 5384 5379 5374 5369 5364 5358 5353 5347 5342 5337 5332
5463 5462 5462 5461 5460 5459 5457 5455 5453 5450 5448 5446 5443 5441 5439 5437 5436 5435 5434 5432 5431 5430 5429 5427 5426 5425 5423 5422 5420 5418 5416 5414 5411 5408 5404 5401 5397 5394 5390 5385 5380 5375 5370 5365 5360 5354 5349 5344 5339 5334 5329 5323 5317 5312
5456 5455 5454 5453 5451 5448 5446 5444 5442 5439 5436 5434 5432 5431 5430 5429 5428 5426 5424 5423 5422 5421 5420 5418 5416 5414 5412 5410 5407 5405 5402 5399 5396 5392 5388 5383 5378 5374 5369 5364 5360 5355 5350 5345 5340 5334 5330 5326 5320 5313 5307 5301 5294 5287
5448 5446 5445 5442 5440 5438 5436 5434 5431 5429 5427 5426 5425 5423 5422 5420 5419 5417 5416 5414 5412 5410 5408 5407 5404 5401 5398 5395 5392 5389 5386 5382 5379 5375 5371 5366 5360 5356 5351 5346 5341 5337 5331 5326 5320 5315 5310 5304 5297 5290 5283 5277 5270 5263
5439 5437 5435 5433 5431 5429 5427 5426 5423 5421 5419 5417 5415 5413 5412 5409 5407 5406 5403 5401 5399 5397 5395 5393 5391 5387 5383 5380 5377 5373 5369 5366 5362 5358 5353 5349 5345 5340 5335 5330 5324 5318 5312 5306 5299 5291 5284 5277 5270 5264 5257 5251 5245 5240
5431 5429 5427 5425 5423 5421 5418 5416 5414 5412 5408 5405 5403 5400 5398 5396 5393 5391 5390 5388 5385 5382 5380 5378 5375 5372 5369 5366 5362 5358 5354 5351 5347 5342 5337 5333 5327 5322 5317 5310 5303 5296 5289 5281 5274 5267 5260 5252 5245 5238 5232 5226 5221 5216
5425 5423 5421 5419 5416 5414 5411 5408 5405 5403 5400 5396 5393 5389 5386 5384 5382 5380 5377 5376 5373 5370 5368 5365 5363 5360 5357 5353 5350 5347 5343 5338 5334 5329 5322 5315 5308 5301 5294 5287 5279 5271 5263 5255 5248 5241 5234 5228 5221 5215 5209 5204 5199 5195
5419 5417 5415 5412 5409 5406 5403 5400 5397 5393 5390 5385 5382 5379 5376 5374 5371 5370 5367 5365 5363 5360 5358 5355 5352 5349 5346 5342 5338 5334 5329 5324 5319 5312 5306 5298 5291 5283 5274 5266 5258 5250 5242 5234 5227 5220 5214 5207 5201 5195 5190 5185 5181 5177